sat.trackr.live / text

‹ back to catalog

STARLINK-36577

NORAD 67583 · 2026-016Y

PAYLOAD ACTIVE UNKNOWN

§ Identity

Operator
Country
US
Launch date
2026-01-25
Launch site
AFWTR
Launch vehicle
Mass (kg)
RCS (m²)

Purposes: comms

External: N2YO · Heavens-Above · Gunter

§ Orbital elements

Epoch: 2026-09-19T10:45:27.814176Z

Period
93.91 min
Inclination
97.2865°
Eccentricity
0.0001621
Mean motion
15.33462641 rev/d
Perigee alt
464.4 km
Apogee alt
466.6 km
Semi-major
6,843.6 km
B*
7.1750e-4
RAAN
321.1925°
Arg perigee
92.0987°
Mean anomaly
268.0441°
Rev number
3,656

§ Raw data

STARLINK-365771 67583U 26016Y   26262.44823859  .00023173  00000+0  71750-3 0  99932 67583  97.2865 321.1925 0001621  92.0987 268.0441 15.33462641 36566

JSON: /api/v1/satellites/67583 · /tle

For live sub-satellite position, see the globe view (requires WebGL).

§ Visibility from observer

Set your observer location to see the next 7 days of passes ≥ 10°. The values pass through the URL so the page stays shareable.

No JS? Fill the form by hand. The geolocation button needs JavaScript.